Regional Weather Roundup
Issued by NWS Sterling, VA

Home | Current Version | Previous Version | Text Only | Print | Product List | Glossary Off
Versions: 1 2 3 4 5 6 7 8 9 10 11 12 13 14 15 16 17 18 19 20 21 22 23 24 25 26 27 28 29 30 31 32 33 34 35 36 37 38 39 40 41 42 43 44 45 46 47 48 49 50

000
ASUS41 KLWX 051110
RWRLWX

REGIONAL WEATHER ROUNDUP
NATIONAL WEATHER SERVICE BALTIMORE MD/WASHINGTON DC
700 AM EDT SAT SEP 05 2015

Note: "FAIR" indicates few or no clouds below 12,000 feet
with no significant weather and/or obstructions to visibility.
 TC=TEMPERATURE CELSIUS

 * =Non NWS site. Station does not report precipitation (e.g. rain,
    snow, etc.), thunder, or fog.

DCZ001-MDZ009-015-VAZ040>042-051-053>054-051200-
WASHINGTON METRO

CITY           SKY/WX    TMP DP  RH WIND       PRES   REMARKS
WASHINGTON NAT CLOUDY    73  70  88 NE13      30.21R
DULLES         MOCLDY    72  68  87 NE7       30.21R
ANDREWS AFB    MOCLDY    72  68  88 NE9       30.20R
FT BELVOIR     CLOUDY    72  69  90 VRB2      30.20R
QUANTICO       PTCLDY    72  69  90 NE13      30.20R
COLLEGE PARK*  CLOUDY    73  68  83 NE6       30.21R
LEESBURG*      CLOUDY    72  72 100 N3        30.23R
MANASSAS*      CLEAR     68  68 100 N3        30.20R
GAITHERSBURG*  MOCLDY    70  64  83 CALM      30.26R

$$

MDZ006>007-011-014-051200-
BALTIMORE METRO

CITY           SKY/WX    TMP DP  RH WIND       PRES   REMARKS
BWI AIRPORT    CLOUDY    73  66  78 E15       30.21R
MD SCIENCE CTR   N/A     73  67  81 MISG      30.22R
ANNAPOLIS      CLOUDY    74  69  85 NE7       30.21R
FORT MEADE*    CLOUDY    72  64  78 E8        30.24R

$$

MDZ012-015-019>023-051200-
MARYLAND EASTERN SHORE

CITY           SKY/WX    TMP DP  RH WIND       PRES   REMARKS
OCEAN CITY     PTCLDY    76  67  73 E15G24    30.16R
SALISBURY      CLOUDY    72  69  90 NE8       30.17R
BAY BRIDGE AP*   N/A     72  66  83 E6        30.21R
CAMBRIDGE*     PTCLDY    72  66  83 NE6       30.18R
EASTON*        MOCLDY    72  72 100 NE7       30.23R

$$

MDZ017>025-051200-
SOUTHERN MARYLAND

CITY           SKY/WX    TMP DP  RH WIND       PRES   REMARKS
PATUXENT RIVER CLOUDY    74  69  85 NE12      30.18R
ST INIGOES     CLOUDY    75  69  81 NE10      30.16R
LEONARDTOWN*   NOT AVBL

$$

MDZ003>005-051200-
NORTH CENTRAL MARYLAND

CITY           SKY/WX    TMP DP  RH WIND       PRES   REMARKS
FREDERICK*     NOT AVBL
HAGERSTOWN APT CLOUDY    71  67  87 E3        30.24R
WESTMINSTER*   CLOUDY    70  66  88 E3        30.24R

$$

MDZ501>502-051200-
WESTERN MARYLAND

CITY           SKY/WX    TMP DP  RH WIND       PRES   REMARKS
OAKLAND*       CLOUDY    63  63 100 SE7       30.29R FOG
CUMBERLAND*    MOCLDY    72  72 100 CALM      30.26R

$$

VAZ025>031-051200-
SHENANDOAH VALLEY

CITY           SKY/WX    TMP DP  RH WIND       PRES   REMARKS
WINCHESTER*    CLOUDY    72  68  88 CALM      30.22R FOG
FRONT ROYAL*   CLOUDY    72  68  88 CALM      30.21R
LURAY*         CLOUDY    68  68 100 N3        30.22R FOG
NEW MARKET*    PTSUNNY   66  66 100 CALM      30.21R
STAUNTON*      CLOUDY    67  65  93 CALM      30.24R FOG
WAYNESBORO*    CLOUDY    68  67  95 CALM      30.24R

$$

WVZ021-048>050-054>055-051200-
EASTERN WEST VIRGINIA PANHANDLE

CITY           SKY/WX    TMP DP  RH WIND       PRES   REMARKS
MARTINSBURG    CLOUDY    69  68  96 E5        30.23R FOG
PETERSBURG*    CLOUDY    66  66  98 CALM      30.24R FOG

$$

VAZ036>039-050-051200-
CENTRAL FOOTHILLS

CITY           SKY/WX    TMP DP  RH WIND       PRES   REMARKS
CHARLOTTESVILL CLOUDY    72  69  90 NE7       30.20R FOG
CULPEPER*      CLOUDY    68  68  99 CALM      30.21R FOG
ORANGE*        CLOUDY    72  70  94 N5        30.22R FOG
GORDONSVILLE*  CLOUDY    71  70  98 NE5       30.19R FOG
WARRENTON*     CLOUDY    71  71 100 CALM      30.20R FOG

$$

VAZ055>057-051200-
NORTH AND CENTRAL PIEDMONT

CITY           SKY/WX    TMP DP  RH WIND       PRES   REMARKS
FREDERICKSBRG* MOCLDY    71  71 100 NE5       30.18R
STAFFORD*      MOCLDY    70  68  92 CALM      30.23R FOG

$$

NCZ024-NYZ072-PAZ021-071-VAZ022-071-051200-
OTHER REGIONAL OBSERVATIONS

CITY           SKY/WX    TMP DP  RH WIND       PRES   REMARKS
NEW YORK CITY  CLEAR     67  59  75 CALM      30.29R
PHILADELPHIA   MOCLDY    72  62  71 E7        30.23S
PITTSBURGH     PTCLDY    67  64  90 CALM      30.18R FOG
ROANOKE        CLOUDY    67  67 100 CALM      30.23R FOG
RICHMOND       MOCLDY    72  69  90 NE8       30.16R FOG
RALEIGH        MOCLDY    70  68  93 NE7       30.12R FOG

$$

ANZ530>537-051200-
MARINE OBSERVATIONS

STATION/POSITION TIME  TEMP    WIND        PRES
                       AIR SEA DIR/SP/G
                 (UTC) (F)     (DEG/KT/KT) (MB)
THOMAS PT LIGHT  1100   73 80   70/ 13/ 14 1023.3
BALT KEY BRIDGE  1000   74      50/ 11/ 13 1022.5R
COVE POINT       1000   73      80/ 15/ 18 1022.2R
LEWISETTA        1000   76 81   60/ 13/ 21 1020.4R
SOLOMONS ISLAND  1000      82                N/A
PINEY POINT      1005           60/  9/ 10   N/A

$$



USA.gov is the U.S. government's official web portal to all federal, state and local government web resources and services.